| time (UTC) | temp F | wind direction | speed knots | gust knots | rain 1hr in | rain 24hr in | rain mn in | humidity % | barometer mb |
| 20260510102004 | 52 | 56 | 5.2 | 10.4 | 0.00 | 0.00 | 0.00 | 76 | 1018.0 |
| 20260510101004 | 51 | 57 | 5.2 | 13.0 | 0.00 | 0.00 | 0.00 | 77 | 1018.0 |
| 20260510100503 | 51 | 97 | 5.2 | 13.9 | 0.00 | 0.00 | 0.00 | 77 | 1018.1 |
| 20260510100004 | 51 | 65 | 6.1 | 12.2 | 0.00 | 0.00 | 0.00 | 77 | 1018.1 |
| 20260510095504 | 51 | 61 | 5.2 | 13.0 | 0.00 | 0.00 | 0.00 | 77 | 1018.1 |
| 20260510094504 | 50 | 59 | 4.3 | 11.3 | 0.00 | 0.00 | 0.00 | 77 | 1018.1 |
| 20260510094003 | 50 | 27 | 5.2 | 13.0 | 0.00 | 0.00 | 0.00 | 77 | 1018.1 |
| 20260510093504 | 51 | 42 | 5.2 | 15.6 | 0.00 | 0.00 | 0.00 | 77 | 1018.1 |
| 20260510093003 | 51 | 55 | 4.3 | 11.3 | 0.00 | 0.00 | 0.00 | 78 | 1018.1 |
| 20260510092503 | 50 | 70 | 3.5 | 10.4 | 0.00 | 0.00 | 0.00 | 78 | 1018.1 |
| 20260510092004 | 50 | 65 | 3.5 | 8.7 | 0.00 | 0.00 | 0.00 | 78 | 1018.1 |
| 20260510091504 | 50 | 64 | 4.3 | 10.4 | 0.00 | 0.00 | 0.00 | 79 | 1018.1 |
| 20260510090503 | 50 | 50 | 6.1 | 13.0 | 0.00 | 0.00 | 0.00 | 79 | 1018.2 |
| 20260510090003 | 50 | 41 | 5.2 | 12.2 | 0.00 | 0.00 | 0.00 | 79 | 1018.2 |
| 20260510084504 | 50 | 79 | 4.3 | 10.4 | 0.00 | 0.00 | 0.00 | 79 | 1018.2 |
| 20260510084004 | 49 | 67 | 6.1 | 17.4 | 0.00 | 0.00 | 0.00 | 79 | 1018.2 |
| 20260510083504 | 49 | 69 | 8.7 | 15.6 | 0.00 | 0.00 | 0.00 | 79 | 1018.2 |
| 20260510083005 | 49 | 72 | 6.1 | 13.9 | 0.00 | 0.00 | 0.00 | 79 | 1018.3 |
| 20260510082503 | 49 | 52 | 7.0 | 13.9 | 0.00 | 0.00 | 0.00 | 80 | 1018.2 |
| 20260510081503 | 49 | 70 | 7.8 | 11.3 | 0.00 | 0.00 | 0.00 | 80 | 1018.3 |
| 20260510081003 | 49 | 61 | 4.3 | 10.4 | 0.00 | 0.00 | 0.00 | 80 | 1018.3 |
| 20260510080504 | 49 | 33 | 6.1 | 15.6 | 0.00 | 0.00 | 0.00 | 80 | 1018.3 |
| 20260510080003 | 49 | 61 | 7.8 | 15.6 | 0.00 | 0.00 | 0.00 | 80 | 1018.3 |
| 20260510075003 | 50 | 43 | 5.2 | 13.9 | 0.00 | 0.00 | 0.00 | 80 | 1018.1 |
| 20260510074003 | 50 | 74 | 4.3 | 13.0 | 0.00 | 0.00 | 0.00 | 80 | 1018.0 |
| 20260510073004 | 50 | 58 | 7.8 | 14.8 | 0.00 | 0.00 | 0.00 | 80 | 1017.9 |
| 20260510072503 | 50 | 65 | 7.8 | 14.8 | 0.00 | 0.00 | 0.00 | 80 | 1017.8 |
| 20260510072004 | 50 | 52 | 5.2 | 10.4 | 0.00 | 0.00 | 0.00 | 80 | 1017.9 |
| 20260510071503 | 50 | 63 | 6.1 | 13.0 | 0.00 | 0.00 | 0.00 | 80 | 1017.9 |
| 20260510071004 | 50 | 66 | 6.1 | 12.2 | 0.00 | 0.00 | 0.00 | 80 | 1017.8 |
| 20260510070503 | 50 | 66 | 8.7 | 13.9 | 0.00 | 0.00 | 0.00 | 80 | 1017.7 |
| 20260510065503 | 50 | 54 | 7.8 | 12.2 | 0.00 | 0.00 | 0.00 | 80 | 1017.7 |
| 20260510065004 | 50 | 69 | 4.3 | 13.0 | 0.00 | 0.00 | 0.00 | 80 | 1017.7 |
| 20260510064503 | 50 | 61 | 7.8 | 14.8 | 0.00 | 0.00 | 0.00 | 80 | 1017.6 |
| 20260510064004 | 50 | 60 | 7.8 | 15.6 | 0.00 | 0.00 | 0.00 | 79 | 1017.6 |
| 20260510063503 | 50 | 65 | 6.1 | 12.2 | 0.00 | 0.00 | 0.00 | 79 | 1017.6 |
| 20260510063003 | 50 | 70 | 7.0 | 13.0 | 0.00 | 0.00 | 0.00 | 79 | 1017.6 |
| 20260510062504 | 50 | 41 | 6.1 | 17.4 | 0.00 | 0.00 | 0.00 | 79 | 1017.6 |
| 20260510062003 | 50 | 48 | 4.3 | 10.4 | 0.00 | 0.00 | 0.00 | 80 | 1017.6 |
| 20260510061504 | 50 | 61 | 5.2 | 13.0 | 0.00 | 0.00 | 0.00 | 80 | 1017.6 |
| 20260510061004 | 50 | 70 | 6.1 | 10.4 | 0.00 | 0.00 | 0.00 | 80 | 1017.5 |
| 20260510060504 | 49 | 61 | 4.3 | 10.4 | 0.00 | 0.00 | 0.00 | 80 | 1017.6 |
| 20260510060004 | 49 | 62 | 5.2 | 11.3 | 0.00 | 0.00 | 0.00 | 80 | 1017.6 |
| 20260510055503 | 49 | 52 | 2.6 | 8.7 | 0.00 | 0.00 | 0.00 | 80 | 1017.5 |
| 20260510055004 | 49 | 33 | 7.0 | 11.3 | 0.00 | 0.00 | 0.00 | 80 | 1017.5 |
| 20260510054004 | 49 | 60 | 4.3 | 11.3 | 0.00 | 0.00 | 0.00 | 80 | 1017.5 |
| 20260510053503 | 49 | 51 | 2.6 | 10.4 | 0.00 | 0.00 | 0.00 | 80 | 1017.4 |
| 20260510053003 | 49 | 53 | 5.2 | 11.3 | 0.00 | 0.00 | 0.00 | 80 | 1017.4 |
| 20260510052505 | 49 | 57 | 4.3 | 10.4 | 0.00 | 0.00 | 0.00 | 80 | 1017.4 |
| 20260510052003 | 49 | 66 | 5.2 | 10.4 | 0.00 | 0.00 | 0.00 | 80 | 1017.5 |
| 20260510051504 | 49 | 60 | 5.2 | 10.4 | 0.00 | 0.00 | 0.00 | 80 | 1017.5 |
| 20260510051003 | 49 | 58 | 5.2 | 11.3 | 0.00 | 0.00 | 0.00 | 79 | 1017.4 |
| 20260510050503 | 49 | 55 | 5.2 | 12.2 | 0.00 | 0.00 | 0.00 | 79 | 1017.5 |
| 20260510050004 | 49 | 56 | 6.1 | 13.0 | 0.00 | 0.00 | 0.00 | 79 | 1017.5 |
| 20260510045003 | 49 | 66 | 4.3 | 10.4 | 0.00 | 0.00 | 0.00 | 79 | 1017.4 |
| 20260510044503 | 49 | 43 | 6.1 | 12.2 | 0.00 | 0.00 | 0.00 | 79 | 1017.3 |
| 20260510044004 | 49 | 52 | 6.1 | 12.2 | 0.00 | 0.00 | 0.00 | 79 | 1017.4 |
| 20260510043503 | 49 | 53 | 5.2 | 14.8 | 0.00 | 0.00 | 0.00 | 79 | 1017.4 |
| 20260510043003 | 49 | 51 | 6.1 | 17.4 | 0.00 | 0.00 | 0.00 | 79 | 1017.4 |
| 20260510042003 | 50 | 62 | 7.0 | 14.8 | 0.00 | 0.00 | 0.00 | 79 | 1017.5 |
| 20260510041504 | 50 | 39 | 7.8 | 14.8 | 0.00 | 0.00 | 0.00 | 79 | 1017.5 |
| 20260510040504 | 50 | 57 | 5.2 | 13.0 | 0.00 | 0.00 | 0.00 | 79 | 1017.6 |
| 20260510040004 | 50 | 59 | 6.1 | 10.4 | 0.00 | 0.00 | 0.00 | 79 | 1017.5 |
| 20260510035004 | 50 | 56 | 8.7 | 15.6 | 0.00 | 0.00 | 0.00 | 79 | 1017.7 |
| 20260510034504 | 50 | 60 | 7.8 | 13.0 | 0.00 | 0.00 | 0.00 | 79 | 1017.7 |
| 20260510034003 | 50 | 52 | 5.2 | 13.0 | 0.00 | 0.00 | 0.00 | 79 | 1017.7 |
| 20260510033503 | 50 | 47 | 7.0 | 13.0 | 0.00 | 0.00 | 0.00 | 79 | 1017.7 |
| 20260510033004 | 50 | 47 | 6.1 | 11.3 | 0.00 | 0.00 | 0.00 | 79 | 1017.7 |
| 20260510032503 | 50 | 57 | 6.1 | 10.4 | 0.00 | 0.00 | 0.00 | 79 | 1017.8 |
| 20260510032004 | 50 | 57 | 7.8 | 12.2 | 0.00 | 0.00 | 0.00 | 79 | 1017.9 |
| 20260510031004 | 50 | 51 | 4.3 | 12.2 | 0.00 | 0.00 | 0.00 | 79 | 1017.9 |
| 20260510030504 | 50 | 63 | 5.2 | 10.4 | 0.00 | 0.00 | 0.00 | 79 | 1017.8 |
| 20260510025503 | 50 | 46 | 5.2 | 10.4 | 0.00 | 0.00 | 0.00 | 79 | 1017.9 |
| 20260510025004 | 50 | 46 | 5.2 | 10.4 | 0.00 | 0.00 | 0.00 | 79 | 1017.9 |
| 20260510024503 | 50 | 59 | 5.2 | 10.4 | 0.00 | 0.00 | 0.00 | 79 | 1018.0 |
| 20260510024003 | 50 | 41 | 6.1 | 11.3 | 0.00 | 0.00 | 0.00 | 79 | 1017.9 |
| 20260510023504 | 50 | 56 | 6.1 | 13.0 | 0.00 | 0.00 | 0.00 | 78 | 1018.0 |
| 20260510023005 | 50 | 44 | 6.1 | 12.2 | 0.00 | 0.00 | 0.00 | 78 | 1017.9 |
| 20260510022504 | 50 | 41 | 5.2 | 11.3 | 0.00 | 0.00 | 0.00 | 78 | 1017.9 |
| 20260510022003 | 50 | 45 | 5.2 | 10.4 | 0.00 | 0.00 | 0.00 | 78 | 1017.9 |
| 20260510021503 | 50 | 49 | 5.2 | 12.2 | 0.00 | 0.00 | 0.00 | 78 | 1017.9 |
| 20260510021005 | 50 | 58 | 7.0 | 13.9 | 0.00 | 0.00 | 0.00 | 77 | 1017.9 |
| 20260510015004 | 51 | 38 | 7.8 | 12.2 | 0.00 | 0.00 | 0.00 | 77 | 1018.0 |
| 20260510014503 | 51 | 44 | 4.3 | 12.2 | 0.00 | 0.00 | 0.00 | 77 | 1017.9 |
| 20260510014003 | 51 | 47 | 6.1 | 12.2 | 0.00 | 0.00 | 0.00 | 77 | 1017.9 |
| 20260510013504 | 51 | 53 | 6.1 | 12.2 | 0.00 | 0.00 | 0.00 | 76 | 1017.9 |
| 20260510012503 | 51 | 49 | 6.1 | 10.4 | 0.00 | 0.00 | 0.00 | 76 | 1018.0 |
| 20260510012004 | 51 | 47 | 2.6 | 8.7 | 0.00 | 0.00 | 0.00 | 75 | 1018.0 |
| 20260510011503 | 52 | 61 | 1.7 | 7.8 | 0.00 | 0.00 | 0.00 | 75 | 1018.0 |
| 20260510011003 | 52 | 65 | 3.5 | 8.7 | 0.00 | 0.00 | 0.00 | 75 | 1018.0 |
| 20260510010504 | 52 | 59 | 5.2 | 10.4 | 0.00 | 0.00 | 0.00 | 76 | 1018.0 |
| 20260510010004 | 52 | 49 | 5.2 | 11.3 | 0.00 | 0.00 | 0.00 | 76 | 1018.0 |
| 20260510005504 | 52 | 52 | 4.3 | 10.4 | 0.00 | 0.00 | 0.00 | 76 | 1017.9 |
| 20260510005004 | 52 | 62 | 4.3 | 12.2 | 0.00 | 0.00 | 0.00 | 76 | 1017.9 |
| 20260510004503 | 52 | 38 | 5.2 | 12.2 | 0.00 | 0.00 | 0.00 | 75 | 1017.9 |
| 20260510004004 | 53 | 52 | 4.3 | 11.3 | 0.00 | 0.00 | 0.00 | 75 | 1017.9 |
| 20260510003503 | 53 | 56 | 6.1 | 13.9 | 0.00 | 0.00 | 0.00 | 75 | 1017.9 |
| 20260510003004 | 53 | 35 | 5.2 | 10.4 | 0.00 | 0.00 | 0.00 | 75 | 1018.0 |
| 20260510002504 | 53 | 38 | 4.3 | 10.4 | 0.00 | 0.00 | 0.00 | 76 | 1017.9 |
| 20260510002003 | 53 | 53 | 5.2 | 10.4 | 0.00 | 0.00 | 0.00 | 76 | 1017.9 |
| 20260510001504 | 53 | 35 | 5.2 | 12.2 | 0.00 | 0.00 | 0.00 | 76 | 1017.8 |
| 20260510000504 | 53 | 36 | 5.2 | 10.4 | 0.00 | 0.00 | 0.00 | 75 | 1017.7 |
| 20260510000004 | 53 | 11 | 6.1 | 13.0 | 0.00 | 0.00 | 0.00 | 75 | 1017.7 |
| 20260509235504 | 54 | 30 | 6.1 | 14.8 | 0.00 | 0.00 | 0.00 | 75 | 1017.7 |
| 20260509235004 | 54 | 24 | 6.1 | 10.4 | 0.00 | 0.00 | 0.00 | 75 | 1017.7 |
| 20260509232504 | 54 | 69 | 5.2 | 10.4 | 0.00 | 0.00 | 0.00 | 74 | 1017.6 |
| 20260509232004 | 54 | 59 | 4.3 | 10.4 | 0.00 | 0.00 | 0.00 | 75 | 1017.6 |
| 20260509231504 | 54 | 31 | 5.2 | 8.7 | 0.00 | 0.00 | 0.00 | 75 | 1017.6 |
| 20260509231004 | 55 | 59 | 2.6 | 10.4 | 0.00 | 0.00 | 0.00 | 75 | 1017.6 |
| 20260509230503 | 55 | 64 | 2.6 | 8.7 | 0.00 | 0.00 | 0.00 | 75 | 1017.5 |
| 20260509230004 | 55 | 37 | 7.0 | 13.0 | 0.00 | 0.00 | 0.00 | 75 | 1017.6 |
| 20260509225004 | 55 | 56 | 4.3 | 10.4 | 0.00 | 0.00 | 0.00 | 75 | 1017.6 |
| 20260509224005 | 55 | 42 | 4.3 | 10.4 | 0.00 | 0.00 | 0.00 | 75 | 1017.5 |
| 20260509223504 | 56 | 18 | 4.3 | 8.7 | 0.00 | 0.00 | 0.00 | 75 | 1017.5 |
| 20260509223005 | 56 | 36 | 4.3 | 10.4 | 0.00 | 0.00 | 0.00 | 75 | 1017.5 |
| 20260509222503 | 56 | 56 | 5.2 | 12.2 | 0.00 | 0.00 | 0.00 | 75 | 1017.5 |
| 20260509221005 | 56 | 57 | 4.3 | 10.4 | 0.00 | 0.00 | 0.00 | 75 | 1017.5 |
| 20260509220004 | 56 | 47 | 5.2 | 11.3 | 0.00 | 0.00 | 0.00 | 75 | 1017.5 |
| 20260509215504 | 56 | 58 | 5.2 | 10.4 | 0.00 | 0.00 | 0.00 | 75 | 1017.4 |
| 20260509215004 | 57 | 66 | 5.2 | 10.4 | 0.00 | 0.00 | 0.00 | 75 | 1017.5 |
| 20260509214005 | 57 | 67 | 6.1 | 11.3 | 0.00 | 0.00 | 0.00 | 75 | 1017.5 |
| 20260509213504 | 57 | 71 | 6.1 | 12.2 | 0.00 | 0.00 | 0.00 | 74 | 1017.4 |
| 20260509213004 | 57 | 58 | 4.3 | 10.4 | 0.00 | 0.00 | 0.00 | 74 | 1017.4 |
| 20260509212503 | 57 | 65 | 5.2 | 10.4 | 0.00 | 0.00 | 0.00 | 74 | 1017.4 |
| 20260509212004 | 57 | 64 | 7.0 | 12.2 | 0.00 | 0.00 | 0.00 | 74 | 1017.3 |
| 20260509211503 | 57 | 61 | 5.2 | 11.3 | 0.00 | 0.00 | 0.00 | 74 | 1017.2 |
| 20260509210504 | 58 | 44 | 7.8 | 13.0 | 0.00 | 0.00 | 0.00 | 73 | 1017.2 |
| 20260509205504 | 58 | 35 | 6.1 | 11.3 | 0.00 | 0.00 | 0.00 | 72 | 1017.1 |
| 20260509205005 | 58 | 43 | 7.8 | 13.0 | 0.00 | 0.00 | 0.00 | 72 | 1017.1 |
| 20260509204503 | 58 | 30 | 8.7 | 13.9 | 0.00 | 0.00 | 0.00 | 72 | 1017.1 |
| 20260509204004 | 58 | 34 | 2.6 | 10.4 | 0.00 | 0.00 | 0.00 | 71 | 1017.1 |
| 20260509203505 | 58 | 43 | 2.6 | 10.4 | 0.00 | 0.00 | 0.00 | 71 | 1017.1 |
| 20260509203004 | 58 | 35 | 5.2 | 10.4 | 0.00 | 0.00 | 0.00 | 71 | 1017.0 |
| 20260509202503 | 58 | 62 | 6.1 | 10.4 | 0.00 | 0.00 | 0.00 | 70 | 1016.9 |
| 20260509201503 | 58 | 16 | 3.5 | 10.4 | 0.00 | 0.00 | 0.00 | 70 | 1017.1 |
| 20260509201003 | 59 | 50 | 4.3 | 8.7 | 0.00 | 0.00 | 0.00 | 70 | 1016.9 |
| 20260509200004 | 59 | 38 | 4.3 | 10.4 | 0.00 | 0.00 | 0.00 | 69 | 1016.8 |
| 20260509195504 | 59 | 24 | 4.3 | 13.9 | 0.00 | 0.00 | 0.00 | 69 | 1016.8 |
| 20260509195003 | 59 | 13 | 5.2 | 12.2 | 0.00 | 0.00 | 0.00 | 69 | 1016.8 |
| 20260509194504 | 60 | 14 | 5.2 | 12.2 | 0.00 | 0.00 | 0.00 | 68 | 1016.7 |
| 20260509193504 | 60 | 17 | 6.1 | 12.2 | 0.00 | 0.00 | 0.00 | 68 | 1016.6 |
| 20260509193004 | 61 | 28 | 6.1 | 13.0 | 0.00 | 0.00 | 0.00 | 67 | 1016.5 |
| 20260509192503 | 61 | 5 | 6.1 | 13.9 | 0.00 | 0.00 | 0.00 | 66 | 1016.6 |
| 20260509192003 | 61 | 17 | 5.2 | 12.2 | 0.00 | 0.00 | 0.00 | 66 | 1016.5 |
| 20260509191504 | 62 | 7 | 6.1 | 13.0 | 0.00 | 0.00 | 0.00 | 64 | 1016.5 |
| 20260509190003 | 64 | 35 | 6.1 | 12.2 | 0.00 | 0.00 | 0.00 | 61 | 1016.3 |
| 20260509185504 | 64 | 35 | 4.3 | 12.2 | 0.00 | 0.00 | 0.00 | 58 | 1016.3 |
| 20260509185003 | 65 | 22 | 4.3 | 10.4 | 0.00 | 0.00 | 0.00 | 55 | 1016.2 |
| 20260509184503 | 65 | 40 | 3.5 | 7.8 | 0.00 | 0.00 | 0.00 | 50 | 1016.1 |
| 20260509184004 | 65 | 39 | 3.5 | 8.7 | 0.00 | 0.00 | 0.00 | 49 | 1016.1 |
| 20260509183504 | 66 | 37 | 6.1 | 10.4 | 0.00 | 0.00 | 0.00 | 49 | 1016.0 |
| 20260509183004 | 66 | 34 | 5.2 | 11.3 | 0.00 | 0.00 | 0.00 | 48 | 1015.9 |
| 20260509182504 | 66 | 62 | 4.3 | 10.4 | 0.00 | 0.00 | 0.00 | 48 | 1015.9 |
| 20260509181504 | 67 | 62 | 5.2 | 12.2 | 0.00 | 0.00 | 0.00 | 47 | 1015.8 |
| 20260509181004 | 67 | 37 | 5.2 | 10.4 | 0.00 | 0.00 | 0.00 | 47 | 1015.8 |
| 20260509180504 | 68 | 66 | 4.3 | 8.7 | 0.00 | 0.00 | 0.00 | 46 | 1015.8 |
| 20260509180004 | 68 | 41 | 5.2 | 8.7 | 0.00 | 0.00 | 0.00 | 47 | 1015.8 |
| 20260509175504 | 69 | 43 | 4.3 | 10.4 | 0.00 | 0.00 | 0.00 | 46 | 1015.8 |
| 20260509174503 | 69 | 45 | 2.6 | 8.7 | 0.00 | 0.00 | 0.00 | 46 | 1015.8 |
| 20260509174004 | 69 | 35 | 3.5 | 10.4 | 0.00 | 0.00 | 0.00 | 46 | 1015.8 |
| 20260509173503 | 69 | 60 | 5.2 | 10.4 | 0.00 | 0.00 | 0.00 | 46 | 1015.8 |
| 20260509173004 | 69 | 93 | 5.2 | 10.4 | 0.00 | 0.00 | 0.00 | 46 | 1015.8 |
| 20260509172004 | 69 | 62 | 4.3 | 10.4 | 0.00 | 0.00 | 0.00 | 48 | 1015.8 |
| 20260509171004 | 69 | 91 | 5.2 | 10.4 | 0.00 | 0.00 | 0.00 | 48 | 1015.7 |
| 20260509170504 | 69 | 45 | 4.3 | 8.7 | 0.00 | 0.00 | 0.00 | 49 | 1015.8 |
| 20260509170003 | 69 | 89 | 2.6 | 7.8 | 0.00 | 0.00 | 0.00 | 49 | 1015.9 |
| 20260509165503 | 69 | 63 | 4.3 | 8.7 | 0.00 | 0.00 | 0.00 | 50 | 1015.9 |
| 20260509165003 | 69 | 35 | 2.6 | 7.8 | 0.00 | 0.00 | 0.00 | 50 | 1015.9 |
| 20260509164504 | 69 | 60 | 2.6 | 8.7 | 0.00 | 0.00 | 0.00 | 51 | 1015.9 |
| 20260509164004 | 69 | 18 | 3.5 | 10.4 | 0.00 | 0.00 | 0.00 | 51 | 1016.0 |
| 20260509163503 | 69 | 50 | 4.3 | 11.3 | 0.00 | 0.00 | 0.00 | 50 | 1015.9 |
| 20260509163004 | 68 | 103 | 2.6 | 5.2 | 0.00 | 0.00 | 0.00 | 51 | 1016.0 |
| 20260509162503 | 68 | 88 | 4.3 | 8.7 | 0.00 | 0.00 | 0.00 | 51 | 1015.9 |
| 20260509162004 | 68 | 101 | 5.2 | 7.8 | 0.00 | 0.00 | 0.00 | 52 | 1015.9 |
| 20260509161503 | 67 | 72 | 3.5 | 7.0 | 0.00 | 0.00 | 0.00 | 53 | 1015.9 |
| 20260509161003 | 67 | 64 | 2.6 | 8.7 | 0.00 | 0.00 | 0.00 | 53 | 1015.9 |
| 20260509160003 | 67 | 93 | 6.1 | 8.7 | 0.00 | 0.00 | 0.00 | 51 | 1016.0 |
| 20260509155503 | 67 | 106 | 5.2 | 10.4 | 0.00 | 0.00 | 0.00 | 51 | 1016.0 |
| 20260509155003 | 68 | 95 | 4.3 | 10.4 | 0.00 | 0.00 | 0.00 | 52 | 1016.1 |
| 20260509154503 | 68 | 98 | 5.2 | 8.7 | 0.00 | 0.00 | 0.00 | 54 | 1016.0 |
| 20260509154003 | 68 | 114 | 2.6 | 7.0 | 0.00 | 0.00 | 0.00 | 53 | 1016.0 |
| 20260509153504 | 68 | 101 | 4.3 | 7.8 | 0.00 | 0.00 | 0.00 | 51 | 1016.0 |
| 20260509152504 | 67 | 94 | 4.3 | 8.7 | 0.00 | 0.00 | 0.00 | 52 | 1016.0 |
| 20260509151504 | 68 | 92 | 4.3 | 10.4 | 0.00 | 0.00 | 0.00 | 54 | 1016.1 |
| 20260509151003 | 68 | 110 | 4.3 | 7.0 | 0.00 | 0.00 | 0.00 | 53 | 1016.0 |
| 20260509150503 | 68 | 99 | 5.2 | 8.7 | 0.00 | 0.00 | 0.00 | 52 | 1016.0 |
| 20260509150004 | 68 | 96 | 5.2 | 11.3 | 0.00 | 0.00 | 0.00 | 53 | 1016.1 |
| 20260509145503 | 68 | 95 | 5.2 | 10.4 | 0.00 | 0.00 | 0.00 | 54 | 1016.0 |
| 20260509145003 | 68 | 58 | 4.3 | 7.0 | 0.00 | 0.00 | 0.00 | 53 | 1016.1 |
| 20260509144503 | 68 | 96 | 4.3 | 10.4 | 0.00 | 0.00 | 0.00 | 53 | 1016.1 |
| 20260509144004 | 68 | 92 | 3.5 | 7.8 | 0.00 | 0.00 | 0.00 | 54 | 1016.1 |
| 20260509143004 | 68 | 89 | 5.2 | 10.4 | 0.00 | 0.00 | 0.00 | 53 | 1016.1 |
| 20260509142503 | 68 | 86 | 3.5 | 8.7 | 0.00 | 0.00 | 0.00 | 55 | 1016.1 |
| 20260509142004 | 68 | 75 | 2.6 | 6.1 | 0.00 | 0.00 | 0.00 | 54 | 1016.1 |
| 20260509141003 | 68 | 107 | 4.3 | 10.4 | 0.00 | 0.00 | 0.00 | 54 | 1016.2 |
| 20260509140503 | 69 | 92 | 4.3 | 10.4 | 0.00 | 0.00 | 0.00 | 52 | 1016.2 |
| 20260509140004 | 69 | 100 | 6.1 | 11.3 | 0.00 | 0.00 | 0.00 | 51 | 1016.2 |
| 20260509135504 | 69 | 108 | 5.2 | 10.4 | 0.00 | 0.00 | 0.00 | 54 | 1016.2 |
| 20260509135004 | 69 | 63 | 4.3 | 7.8 | 0.00 | 0.00 | 0.00 | 54 | 1016.2 |
| 20260509134504 | 69 | 86 | 7.8 | 12.2 | 0.00 | 0.00 | 0.00 | 51 | 1016.2 |
| 20260509134004 | 69 | 108 | 4.3 | 10.4 | 0.00 | 0.00 | 0.00 | 51 | 1016.2 |
| 20260509133503 | 69 | 91 | 4.3 | 8.7 | 0.00 | 0.00 | 0.00 | 53 | 1016.1 |
| 20260509133004 | 69 | 91 | 4.3 | 7.0 | 0.00 | 0.00 | 0.00 | 53 | 1016.2 |
| 20260509132504 | 69 | 100 | 4.3 | 8.7 | 0.00 | 0.00 | 0.00 | 53 | 1016.2 |
| 20260509132004 | 69 | 94 | 5.2 | 8.7 | 0.00 | 0.00 | 0.00 | 52 | 1016.2 |
| 20260509131503 | 69 | 118 | 5.2 | 8.7 | 0.00 | 0.00 | 0.00 | 51 | 1016.3 |
| 20260509131003 | 69 | 126 | 6.1 | 10.4 | 0.00 | 0.00 | 0.00 | 50 | 1016.3 |
| 20260509130504 | 68 | 92 | 6.1 | 10.4 | 0.00 | 0.00 | 0.00 | 52 | 1016.3 |
| 20260509125503 | 68 | 88 | 5.2 | 10.4 | 0.00 | 0.00 | 0.00 | 52 | 1016.4 |
| 20260509125003 | 69 | 110 | 5.2 | 7.8 | 0.00 | 0.00 | 0.00 | 51 | 1016.3 |
| 20260509124503 | 69 | 52 | 3.5 | 8.7 | 0.00 | 0.00 | 0.00 | 54 | 1016.4 |
| 20260509124004 | 69 | 71 | 4.3 | 10.4 | 0.00 | 0.00 | 0.00 | 50 | 1016.4 |
| 20260509123503 | 70 | 75 | 4.3 | 8.7 | 0.00 | 0.00 | 0.00 | 50 | 1016.5 |
| 20260509122505 | 70 | 109 | 6.1 | 10.4 | 0.00 | 0.00 | 0.00 | 52 | 1016.6 |
| 20260509122004 | 70 | 89 | 4.3 | 8.7 | 0.00 | 0.00 | 0.00 | 54 | 1016.7 |
| 20260509121504 | 70 | 116 | 5.2 | 13.0 | 0.00 | 0.00 | 0.00 | 50 | 1016.6 |
| 20260509121004 | 70 | 84 | 4.3 | 8.7 | 0.00 | 0.00 | 0.00 | 54 | 1016.7 |
| 20260509120503 | 69 | 114 | 5.2 | 11.3 | 0.00 | 0.00 | 0.00 | 53 | 1016.7 |
| 20260509115503 | 69 | 72 | 4.3 | 11.3 | 0.00 | 0.00 | 0.00 | 55 | 1016.8 |
| 20260509115003 | 69 | 98 | 5.2 | 10.4 | 0.00 | 0.00 | 0.00 | 54 | 1016.9 |
| 20260509114504 | 69 | 92 | 4.3 | 10.4 | 0.00 | 0.00 | 0.00 | 56 | 1016.9 |
| 20260509114003 | 69 | 88 | 5.2 | 10.4 | 0.00 | 0.00 | 0.00 | 52 | 1016.9 |
| 20260509113504 | 69 | 85 | 3.5 | 7.8 | 0.00 | 0.00 | 0.00 | 58 | 1017.0 |
| 20260509113003 | 68 | 55 | 4.3 | 10.4 | 0.00 | 0.00 | 0.00 | 57 | 1017.1 |
| 20260509112504 | 68 | 57 | 5.2 | 8.7 | 0.00 | 0.00 | 0.00 | 56 | 1017.1 |
| 20260509112003 | 67 | 103 | 4.3 | 8.7 | 0.00 | 0.00 | 0.00 | 54 | 1017.2 |
| 20260509111003 | 67 | 82 | 6.1 | 10.4 | 0.00 | 0.00 | 0.00 | 54 | 1017.3 |
| 20260509110503 | 67 | 92 | 4.3 | 11.3 | 0.00 | 0.00 | 0.00 | 55 | 1017.3 |
| 20260509110004 | 67 | 78 | 5.2 | 10.4 | 0.00 | 0.00 | 0.00 | 54 | 1017.3 |
| 20260509105504 | 66 | 104 | 3.5 | 8.7 | 0.00 | 0.00 | 0.00 | 57 | 1017.3 |
| 20260509104504 | 66 | 76 | 5.2 | 10.4 | 0.00 | 0.00 | 0.00 | 54 | 1017.4 |
| 20260509104003 | 66 | 119 | 6.1 | 10.4 | 0.00 | 0.00 | 0.00 | 56 | 1017.4 |
| 20260509103503 | 67 | 96 | 6.1 | 10.4 | 0.00 | 0.00 | 0.00 | 55 | 1017.4 |